Location: Newark
(43.0000°N, 1.6781°W)
Time: 02:30:26
(UTC+00:00)

X-37B - Pass Details

Date: 08 December 2021
Orbit: 334 x 337 km, 45.0° (Epoch: 11 January)

Event Time Altitude Azimuth Distance (km) Brightness Sun altitude
Rises 19:06:39 0° 264° (W) 2,101 5.6 -27.4°
Reaches altitude 10° 19:08:40 10° 267° (W) 1,265 4.1 -27.8°
Enters shadow 19:08:53 12° 268° (W) 1,173 3.9 -27.8°
